Regional Weather Roundup
Issued by NWS

Home | Current Version | Previous Version | Text Only | Print | Product List | Glossary On
Versions: 1 2 3 4 5 6 7 8 9 10 11 12 13 14 15 16 17 18 19 20 21 22 23 24 25 26 27 28 29 30 31 32 33 34 35 36 37 38 39 40 41 42 43 44 45 46 47 48 49 50
000
ASUS43 KMKX 010121
RWRWI

WISCONSIN REGIONAL WEATHER ROUNDUP
NATIONAL WEATHER SERVICE MILWAUKEE/SULLIVAN WI
800 PM CDT TUE SEP 30 2014

NOTE: "FAIR" INDICATES FEW OR NO CLOUDS BELOW 12,000 FEET WITH NO
SIGNIFICANT WEATHER AND/OR OBSTRUCTIONS TO VISIBILITY.

WIZ001-002-006>008-014>016-023>028-010200-
NORTHWEST WISCONSIN

CITY           SKY/WX    TMP DP  RH WIND       PRES   REMARKS
SUPERIOR ARPT  PTCLDY    47  44  88 E14G20    29.97S
ASHLAND        PTCLDY    43  41  93 NE5       30.00F
HAYWARD        PTCLDY    49  45  86 N3        29.96S
SIREN          MOCLDY    53  44  71 SE6       29.93S
CUMBERLAND     PTCLDY    48  43  81 SE7       29.96R
RICE LAKE      PTCLDY    50  43  79 SE7       29.98R
CHETEK         PTCLDY    49  44  83 SE8       29.98R
LADYSMITH      MOCLDY    51  45  78 S5        30.00S
EAU CLAIRE     MOCLDY    50  42  74 SE8       29.98R
MENOMONIE      MOCLDY    51  43  76 E7        29.97S
NEW RICHMOND   MOCLDY    50  43  77 SE6       29.94S
OSCEOLA        MOCLDY    52  44  75 SE9       29.96R
$$

WIZ003>005-009-010-017-018-010200-
NORTH CENTRAL WISCONSIN

CITY           SKY/WX    TMP DP  RH WIND       PRES   REMARKS
MANITOWISH WTR PTCLDY    40  40 100 CALM      30.00S
ARBOR VITAE    PTCLDY    46  43  91 CALM      30.00S
WOODRUFF       PTCLDY    46  43  91 CALM      30.00S
RHINELANDER    PTCLDY    48  42  80 S3        30.02R
EAGLE RIVER    CLEAR     48  42  77 CALM      30.01S
LAND O LAKES   CLEAR     43  42  94 SE3       30.02S
PHILLIPS       MOCLDY    48  43  81 E3        29.99R
TOMAHAWK       PTCLDY    47  42  83 CALM      30.01S
MEDFORD        MOCLDY    46  42  86 SE5       30.00S
MERRILL        PTCLDY    47  43  86 SE8       30.02R
$$

WIZ029-030-035-036-043>047-010200-
CENTRAL WISCONSIN

CITY           SKY/WX    TMP DP  RH WIND       PRES   REMARKS
WAUSAU         MOCLDY    46  41  82 SE6       30.02R
MOSINEE        CLOUDY    45  43  93 SE7       30.04R
MARSHFIELD     CLOUDY    48  42  80 SE12      30.01S
STEVENS POINT  CLOUDY    44  40  86 SE7       30.04S
WAUPACA        CLOUDY    49  45  84 E7        30.06R
WAUTOMA        NOT AVBL
WISC RAPIDS    CLOUDY    47  41  80 SE8       30.04S
CAMP DOUGLAS   CLOUDY    47  46  99 SE9       30.03R
$$

WIZ011>013-019>022-031-037>040-048>050-010200-
NORTHEAST WISCONSIN

CITY           SKY/WX    TMP DP  RH WIND       PRES   REMARKS
ANTIGO         PTCLDY    43  41  95 S7        30.05R
SHAWANO        CLOUDY    49  43  81 SE3       30.07R
OCONTO         CLOUDY    49  45  86 SE5       30.05F
STURGEON BAY   NOT AVBL
GREEN BAY      CLOUDY    48  44  86 E6        30.06S
MANITOWOC      NOT AVBL
APPLETON       CLOUDY    46  43  87 VRB6      30.06R
CLINTONVILLE   CLOUDY    46  41  81 CALM      30.06R
OSHKOSH        CLOUDY    49  45  86 E6        30.05R
$$

WIZ032>034-041-042-053>061-010200-
SOUTHWEST WISCONSIN

CITY           SKY/WX    TMP DP  RH WIND       PRES   REMARKS
LA CROSSE      PTCLDY    50  43  77 E7        29.99R
SPARTA         CLOUDY    47  41  80 SE5       30.02R
VIROQUA        CLOUDY    46  43  88 E7        29.99S
BOSCOBEL       PTCLDY    49  43  80 VRB3      30.02R
PRAIRIE DU CHI PTCLDY    51  43  73 E8        29.99R
PLATTEVILLE    CLEAR     47  43  86 E6        30.01R
$$

WIZ056-057-062-063-064-067-068-010200-
SOUTH CENTRAL WISCONSIN

CITY           SKY/WX    TMP DP  RH WIND       PRES   REMARKS
REEDSBURG      CLOUDY    46  42  85 SE5       30.04R
BARABOO/DELLS  CLOUDY    47  41  80 E6        30.04R
LONE ROCK      MOCLDY    50  41  71 E9        30.02R
MINERAL POINT  PTCLDY    46  43  87 E9        30.00S
MADISON        MOCLDY    46  41  82 NE6       30.02F
MIDDLETON      MOCLDY    46  42  85 NE5       30.03R
WATERTOWN      CLOUDY    51  45  81 E6        30.03R
MONROE         CLEAR     45  43  93 NE5       30.01R
JANESVILLE     PTCLDY    50  43  76 E7        30.01S
$$

WIZ051-052-058>065-066-070>072-010200-
SOUTHEAST WISCONSIN

CITY           SKY/WX    TMP DP  RH WIND       PRES   REMARKS
MILWAUKEE      DRIZZLE   50  48  93 N7        30.04R
WAUKESHA       CLOUDY    46  45  93 NE6       30.04S
MILWAUKEE/TIMM CLOUDY    48  45  87 N7        30.05S FOG
RACINE         CLOUDY    52  49  89 NE10      30.04S
BURLINGTON     CLOUDY    48  47  93 E5        30.03R
KENOSHA        CLOUDY    51  50  96 NE5       30.03R FOG
FOND DU LAC    CLOUDY    49  42  77 E6        30.05R
SHEBOYGAN      CLOUDY    48  45  89 N3        30.05R
WEST BEND      CLOUDY    46  43  87 N3        30.05S
JUNEAU         CLOUDY    49  43  80 E6        30.05R
$$

LSZ147-162-010200-
LAKE SUPERIOR

STATION/POSITION TIME  TEMP    WIND        PRES    WAVE
                       AIR SEA DIR/SP/G            HT/PER
                 (UTC) (F)     (DEG/KT/KT) (MB)    (FT/S)
W MID LAKE BUOY  0050   47 50   80/ 16/ 19 1016.6F   3/ 4
DEVILS ISLAND    0100   48      80/ 19/ 20 1016.4F
SAXON HARBOR     0000   45      CALM  /  4 1015.6F
$$

LMZ867-665-643>646-010200-
LAKE MICHIGAN

STATION/POSITION TIME  TEMP    WIND        PRES    WAVE
                       AIR SEA DIR/SP/G            HT/PER
                 (UTC) (F)     (DEG/KT/KT) (MB)    (FT/S)
CHAMBERS ISLAND  0000   50      70/  2/  6 1017.9S
S GREEN BAY BUOY 0100   51                 1018.5F
N MID LAKE BUOY  0050   54 58   80/  8/  8 1018.1R   1
NORTHPORT PIER   0000   51      40/  3/  4 1017.6F
KEWAUNEE LAKESHO 0000   49      30/  6/  8 1016.9R
SHEBOYGAN LAKESH 0100   50 55   10/ 12/ 13 1018.0R
PORT WASHINGTON  0000   51     330/  4/  8 1017.9S
ATWATER BUOY     0100   52      20/ 10/ 16 1018.0R
MILWAUKEE LAKESH 0000   50     360/ 10/ 12   N/A
S MID LAKE BUOY  0050   55 61   30/  8/ 12 1016.8R   3/ 7
KENOSHA   LAKESH 0100   53      20/ 13/ 14 1016.6R
$$

TC  - TEMPERATURE IN CELSIUS
VSB - VISIBILITY IN STATUTE MILES
WCI - WIND CHILL INDEX
HX  - HEAT INDEX



USA.gov is the U.S. government's official web portal to all federal, state and local government web resources and services.